This is the latest recevied weather packets stored in our database for station/object WR9A-13. If no packets are shown the sender has not sent any weather packets the latest 10 day(s).
| Time | Temp. | Humidity | Pressure | Rain* | Wind** | Luminosity | Snow |
|---|---|---|---|---|---|---|---|
| 1777574725 | 15.56° C | 49% | 1016.9 hPa | 0 mm | - | - | - |
| 1777574438 | 15° C | 49% | 1017 hPa | 0 mm | - | - | - |
| 1777574125 | 15.56° C | 49% | 1017 hPa | 0 mm | - | - | - |
| 1777573814 | 15.56° C | 49% | 1017 hPa | 0 mm | - | - | - |
| 1777573531 | 15° C | 51% | 1017 hPa | 0 mm | - | - | - |
| 1777573217 | 14.44° C | 50% | 1017 hPa | 0 mm | - | - | - |
| 1777572933 | 14.44° C | 49% | 1017 hPa | 0 mm | - | - | - |
| 1777572630 | 14.44° C | 48% | 1017.2 hPa | 0 mm | - | - | - |
| 1777572319 | 15° C | 48% | 1017.2 hPa | 0 mm | - | - | - |
| 1777572030 | 15° C | 49% | 1017.2 hPa | 0 mm | - | - | - |
| 1777571717 | 15° C | 50% | 1017.2 hPa | 0 mm | - | - | - |
| 1777571414 | 15° C | 48% | 1017.2 hPa | 0 mm | - | - | - |
| 1777571122 | 15° C | 47% | 1017.3 hPa | 0 mm | - | - | - |
| 1777570819 | 15° C | 48% | 1017.3 hPa | 0.25 mm | - | - | - |
| 1777570527 | 14.44° C | 51% | 1017.4 hPa | 0.25 mm | - | - | - |
| 1777570224 | 14.44° C | 50% | 1017.4 hPa | 0.25 mm | - | - | - |
| 1777569941 | 14.44° C | 50% | 1017.5 hPa | 0.25 mm | - | - | - |
| 1777569629 | 14.44° C | 50% | 1017.5 hPa | 0.25 mm | - | - | - |
| 1777569317 | 14.44° C | 53% | 1017.6 hPa | 0.25 mm | - | - | - |
| 1777569015 | 13.89° C | 50% | 1017.7 hPa | 0.25 mm | - | - | - |
| 1777568723 | 13.89° C | 51% | 1017.7 hPa | 0.25 mm | - | - | - |
| 1777568414 | 13.89° C | 50% | 1017.7 hPa | 0.25 mm | - | - | - |
| 1777568131 | 13.89° C | 51% | 1017.6 hPa | 0.25 mm | - | - | - |
| 1777567819 | 13.89° C | 51% | 1017.6 hPa | 0.25 mm | - | - | - |
| 1777567536 | 13.89° C | 52% | 1017.8 hPa | 0.25 mm | - | - | - |
* Rain latest hour (hover to see other rain measurements)
** Current wind speed in m/s (hover to see current wind gust speed)